Location: Dzierzno
(50.6159°N, 19.2852°E)
Time: 06:51:58
(UTC+00:00)

Cosmos 371 Rocket - Pass Details

Date: 18 November 2025
Orbit: 674 x 690 km, 74.0° (Epoch: 06 December)

Event Time Altitude Azimuth Distance (km) Brightness Sun altitude
Rises 17:04:12 0° 193° (SSW) 3,032 6.8 -20.5°
Reaches altitude 10° 17:06:30 10° 190° (S) 2,124 6.0 -20.9°
Maximum altitude 17:11:13 64° 110° (ESE) 764 3.2 -21.6°
Enters shadow 17:12:00 55° 64° (ENE) 832 3.3 -21.8°
